La Paz, Mexico

7:54 PM MDT on April 19, 2018 (GMT -0600)
Gen Manuel Marquez De Leon

Weather History for MMLP - January, 2014

Change the Weather History Date:

Thursday, January 30, 2014

  Actual Average Record
Temperature  
Mean Temperature 71 °F -  
Max Temperature 88 °F 76 °F 88 °F (2014)
Min Temperature 54 °F 53 °F 42 °F (2008)
Cooling Degree Days 6    
Growing Degree Days 21 (Base 50)    
Moisture  
Dew Point 45 °F    
Average Humidity 41    
Maximum Humidity 83    
Minimum Humidity 14    
Precipitation  
Precipitation 0.00 in - - ()
Sea Level Pressure  
Sea Level Pressure 29.97 in    
Wind  
Wind Speed 5 mph ()    
Max Wind Speed 12 mph    
Max Gust Speed -    
Visibility 10.5 miles    
Events      
Averages and records for this station are not official NWS values.
T = Trace of Precipitation, MM = Missing Value Source: Averaged Metar Reports

Daily Weather History Graph

Daily Weather History Graph

Search for Another Location

Airport or City:

Astronomy

Jan. 30, 2014 Rise Set
Actual Time 7:03 AM MST 6:06 PM MST
Civil Twilight 6:39 AM MST 6:30 PM MST
Nautical Twilight 6:12 AM MST 6:57 PM MST
Astronomical Twilight 5:45 AM MST 7:24 PM MST
Moon 6:36 AM MST (1/30) 6:14 PM MST (1/30)
Length of Visible Light 11h 50m
Length of Day
11h 02m
Waning Crescent, 0% of the Moon is Illuminated
Jan 30
Waning Crescent
Jan 30
New
Feb 6
First Quarter
Feb 14
Full
Feb 22
Last Quarter

Hourly Weather History & Observations

Time (MST) Temp. Dew Point Humidity Pressure Visibility Wind Dir Wind Speed Gust Speed Precip Events Conditions
1:45 AM 60 °F 45 °F 46% 29.96 in 2 mi SSE 2.2 mph - -  
4:50 AM 57 °F 44 °F 53% 29.96 in 2 mi SSE 2.2 mph - -  
6:03 AM 50.0 °F 42.8 °F 76% 29.97 in 10.0 mi South 6.9 mph - N/A   Partly Cloudy
7:40 AM 50.0 °F 41.0 °F 71% 30.01 in 10.0 mi South 4.6 mph - N/A   Clear
7:50 AM 55 °F 44 °F 55% 29.99 in 12 mi South 2.2 mph - -  
8:46 AM 62.6 °F 41.0 °F 45% 30.02 in 10.0 mi South 6.9 mph - N/A   Clear
9:41 AM 71.6 °F 39.2 °F 31% 30.03 in 12.0 mi SSE 4.6 mph - N/A   Clear
10:49 AM 80.6 °F 39.2 °F 23% 30.02 in 12.0 mi Calm Calm - N/A   Clear
10:50 AM 80 °F 46 °F 20% 30.01 in 19 mi NW 2.2 mph - -  
11:42 AM 80.6 °F 37.4 °F 21% 30.00 in 12.0 mi North 6.9 mph - N/A   Clear
12:41 PM 82.4 °F 39.2 °F 21% 29.96 in 12.0 mi North 10.4 mph - N/A   Clear
1:40 PM 82.4 °F 39.2 °F 21% 29.94 in 12.0 mi North 11.5 mph - N/A   Clear
1:50 PM 84 °F 47 °F 17% 29.93 in 19 mi NNW 8.9 mph - -  
2:47 PM 84.2 °F 37.4 °F 19% 29.91 in 12.0 mi NW 8.1 mph - N/A   Clear
3:40 PM 84.2 °F 35.6 °F 18% 29.91 in 12.0 mi North 9.2 mph - N/A   Clear
4:45 PM 80.6 °F 44.6 °F 28% 29.92 in 12.0 mi NW 4.6 mph - N/A   Clear
4:50 PM 87 °F 45 °F 14% 29.91 in 19 mi NNE 2.2 mph - -  
5:40 PM 80.6 °F 39.2 °F 23% 29.93 in 10.0 mi WSW 9.2 mph - N/A   Clear
6:41 PM 73.4 °F 44.6 °F 36% 29.95 in 10.0 mi SSW 5.8 mph - N/A   Clear
7:40 PM 69.8 °F 51.8 °F 53% 29.96 in 10.0 mi South 9.2 mph - N/A   Clear
7:50 PM 74 °F 55 °F 41% 29.94 in 2 mi South 6.7 mph - -  
8:40 PM 68.0 °F 55.4 °F 64% 29.97 in 10.0 mi South 8.1 mph - N/A   Clear
9:40 PM 66.2 °F 57.2 °F 73% 30.00 in 10.0 mi South 10.4 mph - N/A   Clear
10:40 PM 64.4 °F 59.0 °F 83% 30.00 in 10.0 mi South 8.1 mph - N/A   Clear
10:45 PM 67 °F 60 °F 72% 29.96 in 2 mi SSE 6.7 mph - -